Flag for Germany Weather past 2 weeks in Fürth, Bavaria, Germany

Now
37 °F

Light rain. Partly cloudy.


Feels Like: 30 °F
Forecast: 31 / 39 °F
Wind: 10 mph from Southwest

Location: Nuernberg

Current Time: Jan 28, 2015 at 9:30:47 PM

Latest Report: Jan 28, 2015 at 8:50 PM


Visibility: N/A

Pressure: 29.56 "Hg

Humidity: 75%

Dew point: 30 °F

Location of FürthLocation

Historic Weather in Fürth — Graph

°F

Fürth temperature yesterday

Maximum temperature yesterday: 36 °F (at 5:50 AM)
Minimum temperature yesterday: 32 °F (at 12:20 AM)
Average temperature yesterday: 34 °F

Past Weeks' High & Low Weather Summary

 TemperatureHumidityPressure
High48 °F (Jan 13, 10:20 PM)100% (Jan 15, 2:50 AM)30.36 "Hg (Jan 15, 2:50 AM)
Low27 °F (Jan 21, 5:20 AM)50% (Jan 13, 8:20 PM)29.59 "Hg (Jan 28, 8:20 PM)
Average35 °F88%29.98 "Hg
* Reported Jan 13 8:20 PM — Jan 28 8:20 PM, Fürth, Weather by CustomWeather, © 2014

Note: Actual official high and low records may vary slightly from our data, if they occured in-between our weather recording intervals... More about our weather records

Advertising

Fürth weather history for previous 24 hours

 ConditionsComfort  
Time TempWeatherWind HumidityBarometerVisibility
8:20 PM
Jan 28
37 °FPartly cloudy.10 mph75%29.59 "HgN/A
7:50 PM37 °FPartly cloudy.12 mph75%29.62 "HgN/A
7:20 PM36 °FPartly cloudy.9 mph81%29.65 "HgN/A
6:50 PM36 °FPassing clouds.12 mph81%29.68 "HgN/A
6:20 PM37 °FPassing clouds.12 mph75%29.68 "HgN/A
5:50 PM36 °FPassing clouds.12 mph81%29.71 "HgN/A
5:20 PM37 °FPartly cloudy.9 mph81%29.74 "HgN/A
4:50 PM37 °FBroken clouds.10 mph81%29.77 "HgN/A
4:20 PM37 °FPartly sunny.10 mph81%29.80 "HgN/A
3:50 PM37 °FPartly sunny.13 mph81%29.80 "HgN/A
3:20 PM37 °FPartly sunny.10 mph81%29.83 "HgN/A
2:50 PM39 °FBroken clouds.10 mph75%29.86 "HgN/A
2:20 PM39 °FPartly sunny.10 mph75%29.86 "HgN/A
1:50 PM37 °FPartly sunny.12 mph81%29.89 "HgN/A
1:20 PM37 °FBroken clouds.8 mph81%29.92 "HgN/A
12:50 PM37 °FBroken clouds.12 mph81%29.95 "HgN/A
12:20 PM37 °FPartly sunny.9 mph87%29.98 "HgN/A
11:50 AM37 °FPartly sunny.13 mph81%30.01 "HgN/A
11:20 AM36 °FPartly sunny.13 mph87%30.01 "HgN/A
10:50 AM36 °FPartly sunny.12 mph93%30.04 "HgN/A
10:20 AM36 °FPartly sunny.14 mph93%30.04 "HgN/A
9:50 AM36 °FPartly sunny.7 mph93%30.04 "HgN/A
9:20 AM36 °FPartly sunny.6 mph93%30.04 "Hg5 mi
8:50 AM36 °FLight rain. Partly sunny.8 mph93%30.07 "Hg4 mi
8:20 AM36 °FPartly sunny.8 mph93%30.07 "Hg4 mi
7:50 AM34 °FPassing clouds.6 mph100%30.07 "Hg4 mi
7:20 AM34 °FPassing clouds.8 mph100%30.07 "Hg4 mi
6:50 AM34 °FPassing clouds.7 mph100%30.07 "Hg4 mi
6:20 AM34 °FPassing clouds.7 mph100%30.07 "Hg4 mi
5:50 AM34 °FPassing clouds.7 mph100%30.07 "Hg4 mi
5:20 AM34 °FPassing clouds.5 mph100%30.09 "Hg4 mi
4:50 AM34 °FPassing clouds.5 mph100%30.09 "Hg4 mi
4:20 AM34 °FLight snow. Passing clouds.7 mph93%30.09 "Hg4 mi
3:50 AM34 °FPassing clouds.6 mph100%30.12 "HgN/A
3:20 AM34 °FPartly cloudy.6 mph100%30.12 "HgN/A
2:50 AM34 °FPartly cloudy.5 mph93%30.12 "HgN/A
2:20 AM34 °FPartly cloudy.6 mph93%30.12 "HgN/A
1:50 AM34 °FPartly cloudy.6 mph93%30.12 "HgN/A
1:20 AM34 °FPassing clouds.5 mph100%30.12 "HgN/A
12:50 AM34 °FPartly cloudy.6 mph93%30.12 "HgN/A
12:20 AM34 °FPartly cloudy.6 mph93%30.12 "HgN/A
11:50 PM
Jan 27
34 °FPassing clouds.5 mph93%30.12 "HgN/A
11:20 PM34 °FPassing clouds.7 mph93%30.12 "HgN/A
10:50 PM34 °FPassing clouds.3 mph93%30.12 "HgN/A
10:20 PM34 °FPassing clouds.2 mph93%30.12 "HgN/A
9:50 PM34 °FPartly cloudy.5 mph93%30.12 "HgN/A
9:20 PM34 °FPartly cloudy.5 mph93%30.12 "HgN/A
Weather by CustomWeather, © 2014

See weather overviewHow to use our weather pages